Location: ????????
(55.4000°N, 39.1167°E)
Time: 11:59:32
(UTC+00:00)

Cosmos 405 Rocket - Pass Details

Date: 19 May 2025
Orbit: 414 x 448 km, 81.2° (Epoch: 13 June)

Event Time Altitude Azimuth Distance (km) Brightness Sun altitude
Rises 19:54:56 0° 345° (NNW) 2,477 8.2 -12.5°
Reaches altitude 10° 19:57:02 10° 345° (NNW) 1,593 6.7 -12.6°
Maximum altitude 20:00:31 87° 260° (W) 455 2.3 -12.8°
Enters shadow 20:02:32 23° 169° (S) 993 3.5 -12.9°
